| time (UTC) | temp F | wind direction | speed MPH | gust MPH | rain 1hr in | rain 24hr in | rain mn in | humidity % | barometer mb |
| 20260506123351 | 60 | 294 | 3.0 | 11.0 | 0.00 | 0.00 | 0.00 | 86 | 1011.5 |
| 20260506122848 | 60 | 201 | 7.0 | 11.0 | 0.00 | 0.00 | 0.00 | 86 | 1011.6 |
| 20260506122345 | 60 | 261 | 2.0 | 9.0 | 0.00 | 0.00 | 0.00 | 87 | 1011.4 |
| 20260506121843 | 60 | 172 | 6.0 | 21.0 | 0.00 | 0.00 | 0.00 | 87 | 1011.4 |
| 20260506121340 | 60 | 232 | 8.0 | 13.0 | 0.00 | 0.00 | 0.00 | 87 | 1011.6 |
| 20260506120837 | 60 | 187 | 4.0 | 13.0 | 0.00 | 0.00 | 0.00 | 88 | 1011.4 |
| 20260506120334 | 60 | 222 | 4.0 | 9.0 | 0.00 | 0.00 | 0.00 | 88 | 1011.4 |
| 20260506115832 | 60 | 216 | 4.0 | 11.0 | 0.00 | 0.00 | 0.00 | 88 | 1011.5 |
| 20260506115330 | 60 | 268 | 1.0 | 10.0 | 0.00 | 0.00 | 0.00 | 88 | 1011.3 |
| 20260506114828 | 59 | 181 | 5.0 | 11.0 | 0.00 | 0.00 | 0.00 | 88 | 1011.4 |
| 20260506114325 | 59 | 195 | 5.0 | 16.0 | 0.00 | 0.00 | 0.00 | 89 | 1011.3 |
| 20260506113824 | 59 | 175 | 5.0 | 10.0 | 0.00 | 0.00 | 0.00 | 89 | 1011.3 |
| 20260506113321 | 59 | 194 | 7.0 | 9.0 | 0.00 | 0.00 | 0.00 | 89 | 1011.1 |
| 20260506112817 | 59 | 189 | 7.0 | 8.0 | 0.00 | 0.00 | 0.00 | 90 | 1011.6 |
| 20260506112314 | 59 | 224 | 3.0 | 12.0 | 0.00 | 0.00 | 0.00 | 90 | 1011.3 |
| 20260506111812 | 58 | 186 | 4.0 | 10.0 | 0.00 | 0.00 | 0.00 | 90 | 1011.2 |
| 20260506111310 | 58 | 186 | 6.0 | 11.0 | 0.00 | 0.00 | 0.00 | 91 | 1011.5 |
| 20260506110807 | 58 | 222 | 5.0 | 11.0 | 0.00 | 0.00 | 0.00 | 91 | 1011.2 |
| 20260506110304 | 58 | 198 | 9.0 | 9.0 | 0.00 | 0.00 | 0.00 | 91 | 1011.4 |
| 20260506105800 | 58 | 179 | 4.0 | 9.0 | 0.00 | 0.00 | 0.00 | 91 | 1011.4 |
| 20260506105257 | 58 | 189 | 5.0 | 7.0 | 0.00 | 0.00 | 0.00 | 91 | 1011.3 |
| 20260506104755 | 57 | 201 | 3.0 | 7.0 | 0.00 | 0.00 | 0.00 | 92 | 1011.1 |
| 20260506104253 | 57 | 203 | 4.0 | 7.0 | 0.00 | 0.00 | 0.00 | 92 | 1011.4 |
| 20260506103750 | 57 | 213 | 2.0 | 11.0 | 0.00 | 0.00 | 0.00 | 92 | 1011.0 |
| 20260506103247 | 57 | 214 | 4.0 | 8.0 | 0.00 | 0.00 | 0.00 | 92 | 1011.3 |
| 20260506102744 | 57 | 205 | 3.0 | 7.0 | 0.00 | 0.00 | 0.00 | 93 | 1011.2 |
| 20260506102242 | 57 | 238 | 6.0 | 11.0 | 0.00 | 0.00 | 0.00 | 93 | 1011.3 |
| 20260506101739 | 57 | 218 | 2.0 | 9.0 | 0.00 | 0.00 | 0.00 | 93 | 1011.4 |
| 20260506101235 | 57 | 231 | 4.0 | 11.0 | 0.00 | 0.00 | 0.00 | 93 | 1011.2 |
| 20260506100734 | 57 | 195 | 7.0 | 8.0 | 0.00 | 0.00 | 0.00 | 93 | 1011.2 |
| 20260506100232 | 57 | 192 | 5.0 | 7.0 | 0.00 | 0.00 | 0.00 | 93 | 1011.1 |
| 20260506095730 | 57 | 213 | 3.0 | 9.0 | 0.00 | 0.00 | 0.00 | 93 | 1011.2 |
| 20260506095226 | 57 | 184 | 4.0 | 7.0 | 0.00 | 0.00 | 0.00 | 93 | 1011.0 |
| 20260506094723 | 57 | 169 | 8.0 | 9.0 | 0.00 | 0.00 | 0.00 | 93 | 1011.3 |
| 20260506094221 | 57 | 192 | 4.0 | 7.0 | 0.00 | 0.00 | 0.00 | 93 | 1011.0 |
| 20260506093720 | 57 | 197 | 4.0 | 10.0 | 0.00 | 0.00 | 0.00 | 93 | 1011.2 |
| 20260506093216 | 57 | 209 | 2.0 | 7.0 | 0.00 | 0.00 | 0.00 | 92 | 1011.0 |
| 20260506092714 | 57 | 236 | 4.0 | 7.0 | 0.00 | 0.00 | 0.00 | 93 | 1011.3 |
| 20260506092212 | 57 | 208 | 4.0 | 8.0 | 0.00 | 0.00 | 0.00 | 93 | 1011.1 |
| 20260506091709 | 57 | 221 | 4.0 | 9.0 | 0.00 | 0.00 | 0.00 | 93 | 1011.2 |
| 20260506091206 | 57 | 192 | 5.0 | 17.0 | 0.00 | 0.00 | 0.00 | 93 | 1011.3 |
| 20260506090704 | 57 | 212 | 3.0 | 7.0 | 0.00 | 0.00 | 0.00 | 92 | 1011.4 |
| 20260506090201 | 57 | 191 | 3.0 | 10.0 | 0.00 | 0.00 | 0.00 | 92 | 1011.3 |
| 20260506085658 | 57 | 190 | 4.0 | 17.0 | 0.00 | 0.00 | 0.00 | 92 | 1011.2 |
| 20260506085153 | 57 | 261 | 2.0 | 7.0 | 0.00 | 0.00 | 0.00 | 92 | 1011.4 |
| 20260506084650 | 57 | 180 | 6.0 | 9.0 | 0.00 | 0.00 | 0.00 | 92 | 1011.5 |
| 20260506084147 | 58 | 182 | 7.0 | 8.0 | 0.00 | 0.00 | 0.00 | 92 | 1011.4 |
| 20260506083644 | 58 | 162 | 7.0 | 10.0 | 0.00 | 0.00 | 0.00 | 91 | 1011.4 |
| 20260506083142 | 58 | 256 | 2.0 | 8.0 | 0.00 | 0.00 | 0.00 | 91 | 1011.6 |
| 20260506082639 | 58 | 211 | 3.0 | 7.0 | 0.00 | 0.00 | 0.00 | 91 | 1011.8 |
| 20260506082134 | 58 | 194 | 7.0 | 12.0 | 0.00 | 0.00 | 0.00 | 91 | 1011.5 |
| 20260506081632 | 58 | 199 | 10.0 | 13.0 | 0.00 | 0.00 | 0.00 | 91 | 1011.6 |
| 20260506081130 | 58 | 184 | 4.0 | 12.0 | 0.00 | 0.00 | 0.00 | 90 | 1011.8 |
| 20260506080627 | 58 | 225 | 4.0 | 10.0 | 0.00 | 0.00 | 0.00 | 90 | 1011.7 |
| 20260506080124 | 58 | 179 | 4.0 | 11.0 | 0.00 | 0.00 | 0.00 | 90 | 1011.5 |
| 20260506073108 | 58 | 238 | 7.0 | 11.0 | 0.00 | 0.00 | 0.00 | 89 | 1011.5 |
| 20260506072604 | 58 | 207 | 5.0 | 12.0 | 0.00 | 0.00 | 0.00 | 89 | 1011.9 |
| 20260506072102 | 58 | 190 | 2.0 | 14.0 | 0.00 | 0.00 | 0.00 | 89 | 1012.0 |
| 20260506071559 | 58 | 266 | 7.0 | 13.0 | 0.00 | 0.00 | 0.00 | 89 | 1012.0 |
| 20260506071057 | 58 | 214 | 5.0 | 10.0 | 0.00 | 0.00 | 0.00 | 89 | 1011.9 |
| 20260506070554 | 58 | 238 | 7.0 | 12.0 | 0.00 | 0.00 | 0.00 | 88 | 1011.7 |
| 20260506062028 | 58 | 182 | 6.0 | 9.0 | 0.00 | 0.00 | 0.00 | 87 | 1011.6 |
| 20260506061523 | 59 | 265 | 3.0 | 9.0 | 0.00 | 0.00 | 0.00 | 87 | 1011.5 |
| 20260506061021 | 59 | 262 | 2.0 | 8.0 | 0.00 | 0.00 | 0.00 | 87 | 1011.9 |
| 20260506060520 | 59 | 189 | 6.0 | 13.0 | 0.00 | 0.00 | 0.00 | 87 | 1011.9 |
| 20260506050948 | 60 | 254 | 3.0 | 10.0 | 0.00 | 0.00 | 0.00 | 85 | 1012.1 |
| 20260506050446 | 59 | 239 | 6.0 | 13.0 | 0.00 | 0.00 | 0.00 | 85 | 1012.1 |
| 20260506044936 | 59 | 255 | 5.0 | 13.0 | 0.00 | 0.00 | 0.00 | 85 | 1012.3 |
| 20260506044435 | 59 | 212 | 4.0 | 10.0 | 0.00 | 0.00 | 0.00 | 85 | 1012.1 |
| 20260506043931 | 60 | 186 | 8.0 | 13.0 | 0.00 | 0.00 | 0.00 | 84 | 1012.2 |
| 20260506043429 | 59 | 201 | 6.0 | 11.0 | 0.00 | 0.00 | 0.00 | 85 | 1012.1 |
| 20260506042926 | 59 | 224 | 4.0 | 12.0 | 0.00 | 0.00 | 0.00 | 85 | 1012.2 |
| 20260506042426 | 59 | 239 | 5.0 | 11.0 | 0.00 | 0.00 | 0.00 | 84 | 1012.1 |
| 20260506041923 | 59 | 161 | 4.0 | 8.0 | 0.00 | 0.00 | 0.00 | 84 | 1012.1 |
| 20260506041421 | 59 | 183 | 9.0 | 10.0 | 0.00 | 0.00 | 0.00 | 84 | 1012.3 |
| 20260506040918 | 59 | 250 | 3.0 | 9.0 | 0.00 | 0.00 | 0.00 | 85 | 1012.3 |
| 20260506040415 | 59 | 196 | 12.0 | 12.0 | 0.00 | 0.00 | 0.00 | 85 | 1012.2 |
| 20260506035911 | 59 | 315 | 3.0 | 11.0 | 0.00 | 0.00 | 0.00 | 84 | 1012.3 |
| 20260506035409 | 59 | 214 | 7.0 | 10.0 | 0.00 | 0.00 | 0.00 | 85 | 1012.3 |
| 20260506034905 | 59 | 193 | 4.0 | 10.0 | 0.00 | 0.00 | 0.00 | 84 | 1012.1 |
| 20260506034403 | 59 | 201 | 6.0 | 9.0 | 0.00 | 0.00 | 0.00 | 84 | 1012.1 |
| 20260506033859 | 59 | 183 | 8.0 | 15.0 | 0.00 | 0.00 | 0.00 | 84 | 1012.4 |
| 20260506033357 | 59 | 183 | 8.0 | 11.0 | 0.00 | 0.00 | 0.00 | 84 | 1012.1 |
| 20260506032853 | 59 | 209 | 6.0 | 13.0 | 0.00 | 0.00 | 0.00 | 85 | 1012.0 |
| 20260506032350 | 58 | 201 | 6.0 | 13.0 | 0.00 | 0.00 | 0.00 | 85 | 1012.1 |
| 20260506031847 | 58 | 180 | 13.0 | 13.0 | 0.00 | 0.00 | 0.00 | 85 | 1012.2 |
| 20260506031344 | 58 | 207 | 5.0 | 17.0 | 0.00 | 0.00 | 0.00 | 85 | 1012.1 |
| 20260506030842 | 59 | 189 | 5.0 | 11.0 | 0.00 | 0.00 | 0.00 | 85 | 1012.2 |
| 20260506030340 | 59 | 179 | 3.0 | 10.0 | 0.00 | 0.00 | 0.00 | 84 | 1012.2 |
| 20260506025837 | 59 | 187 | 5.0 | 15.0 | 0.00 | 0.00 | 0.00 | 85 | 1012.2 |
| 20260506025333 | 59 | 178 | 7.0 | 13.0 | 0.00 | 0.00 | 0.00 | 84 | 1012.2 |
| 20260506024830 | 59 | 256 | 6.0 | 8.0 | 0.00 | 0.00 | 0.00 | 84 | 1012.3 |
| 20260506024327 | 59 | 230 | 6.0 | 7.0 | 0.00 | 0.00 | 0.00 | 84 | 1012.2 |
| 20260506023823 | 59 | 212 | 7.0 | 13.0 | 0.00 | 0.00 | 0.00 | 84 | 1012.4 |
| 20260506023320 | 59 | 272 | 3.0 | 15.0 | 0.00 | 0.00 | 0.00 | 83 | 1012.2 |
| 20260506022816 | 59 | 176 | 4.0 | 10.0 | 0.00 | 0.00 | 0.00 | 83 | 1012.3 |
| 20260506022314 | 59 | 220 | 5.0 | 21.0 | 0.00 | 0.00 | 0.00 | 83 | 1012.2 |
| 20260506021813 | 59 | 249 | 7.0 | 12.0 | 0.00 | 0.00 | 0.00 | 83 | 1012.3 |
| 20260506021309 | 59 | 200 | 5.0 | 11.0 | 0.00 | 0.00 | 0.00 | 83 | 1012.4 |
| 20260506020806 | 59 | 178 | 4.0 | 9.0 | 0.00 | 0.00 | 0.00 | 83 | 1012.3 |
| 20260506020304 | 59 | 203 | 7.0 | 14.0 | 0.00 | 0.00 | 0.00 | 82 | 1012.1 |
| 20260506015801 | 59 | 230 | 2.0 | 9.0 | 0.00 | 0.00 | 0.00 | 82 | 1011.9 |
| 20260506015258 | 59 | 171 | 7.0 | 10.0 | 0.00 | 0.00 | 0.00 | 81 | 1012.1 |
| 20260506014755 | 59 | 204 | 5.0 | 13.0 | 0.00 | 0.00 | 0.00 | 81 | 1012.1 |
| 20260506014252 | 60 | 200 | 7.0 | 16.0 | 0.00 | 0.00 | 0.00 | 80 | 1012.0 |
| 20260506013749 | 60 | 181 | 4.0 | 17.0 | 0.00 | 0.00 | 0.00 | 80 | 1011.9 |
| 20260506013246 | 60 | 182 | 6.0 | 11.0 | 0.00 | 0.00 | 0.00 | 79 | 1012.0 |
| 20260506012742 | 60 | 240 | 4.0 | 12.0 | 0.00 | 0.00 | 0.00 | 78 | 1011.9 |
| 20260506012239 | 61 | 278 | 3.0 | 11.0 | 0.00 | 0.00 | 0.00 | 77 | 1011.7 |
| 20260506011737 | 61 | 243 | 6.0 | 11.0 | 0.00 | 0.00 | 0.00 | 77 | 1011.8 |
| 20260506011233 | 61 | 238 | 5.0 | 11.0 | 0.00 | 0.00 | 0.00 | 77 | 1011.6 |
| 20260506010731 | 61 | 247 | 8.0 | 13.0 | 0.00 | 0.00 | 0.00 | 77 | 1011.5 |
| 20260506010228 | 61 | 213 | 5.0 | 11.0 | 0.00 | 0.00 | 0.00 | 77 | 1011.6 |
| 20260506005725 | 61 | 235 | 2.0 | 13.0 | 0.00 | 0.00 | 0.00 | 77 | 1011.7 |
| 20260506005222 | 62 | 272 | 3.0 | 11.0 | 0.00 | 0.00 | 0.00 | 76 | 1011.4 |
| 20260506004718 | 62 | 232 | 6.0 | 8.0 | 0.00 | 0.00 | 0.00 | 75 | 1011.2 |
| 20260506004216 | 62 | 277 | 3.0 | 8.0 | 0.00 | 0.00 | 0.00 | 75 | 1011.2 |
| 20260506003711 | 62 | 288 | 4.0 | 13.0 | 0.00 | 0.00 | 0.00 | 75 | 1011.2 |
| 20260506003208 | 62 | 230 | 3.0 | 15.0 | 0.00 | 0.00 | 0.00 | 75 | 1011.0 |
| 20260506002704 | 62 | 192 | 8.0 | 15.0 | 0.00 | 0.00 | 0.00 | 75 | 1011.2 |
| 20260506002200 | 61 | 175 | 5.0 | 16.0 | 0.00 | 0.00 | 0.00 | 76 | 1011.1 |
| 20260506001656 | 61 | 234 | 5.0 | 16.0 | 0.00 | 0.00 | 0.00 | 76 | 1010.9 |
| 20260506001154 | 61 | 164 | 4.0 | 9.0 | 0.00 | 0.00 | 0.00 | 77 | 1011.1 |
| 20260506000651 | 61 | 166 | 4.0 | 14.0 | 0.00 | 0.00 | 0.00 | 77 | 1011.0 |
| 20260506000148 | 61 | 195 | 10.0 | 13.0 | 0.00 | 0.00 | 0.00 | 77 | 1010.6 |
| 20260505235646 | 61 | 231 | 5.0 | 11.0 | 0.00 | 0.00 | 0.00 | 77 | 1010.7 |
| 20260505235143 | 61 | 217 | 1.0 | 7.0 | 0.00 | 0.00 | 0.00 | 77 | 1010.9 |
| 20260505234640 | 61 | 181 | 5.0 | 13.0 | 0.00 | 0.00 | 0.00 | 77 | 1010.6 |
| 20260505234137 | 61 | 276 | 5.0 | 12.0 | 0.00 | 0.00 | 0.00 | 78 | 1010.6 |
| 20260505233634 | 61 | 197 | 9.0 | 12.0 | 0.00 | 0.00 | 0.00 | 78 | 1010.6 |
| 20260505233131 | 61 | 256 | 6.0 | 14.0 | 0.00 | 0.00 | 0.00 | 77 | 1010.4 |
| 20260505232629 | 61 | 193 | 4.0 | 11.0 | 0.00 | 0.00 | 0.00 | 77 | 1010.1 |
| 20260505232126 | 61 | 203 | 2.0 | 11.0 | 0.00 | 0.00 | 0.00 | 76 | 1010.1 |
| 20260505231623 | 62 | 223 | 6.0 | 11.0 | 0.00 | 0.00 | 0.00 | 76 | 1010.1 |
| 20260505231122 | 61 | 237 | 4.0 | 11.0 | 0.00 | 0.00 | 0.00 | 76 | 1010.0 |
| 20260505230619 | 62 | 193 | 2.0 | 11.0 | 0.00 | 0.00 | 0.00 | 76 | 1010.3 |
| 20260505230115 | 62 | 249 | 6.0 | 12.0 | 0.00 | 0.00 | 0.00 | 76 | 1010.3 |
| 20260505225612 | 61 | 246 | 3.0 | 8.0 | 0.00 | 0.00 | 0.00 | 76 | 1010.1 |
| 20260505225108 | 62 | 236 | 0.0 | 13.0 | 0.00 | 0.00 | 0.00 | 76 | 1010.2 |
| 20260505224605 | 62 | 271 | 3.0 | 14.0 | 0.00 | 0.00 | 0.00 | 75 | 1010.1 |
| 20260505224102 | 62 | 236 | 8.0 | 13.0 | 0.00 | 0.00 | 0.00 | 75 | 1010.0 |
| 20260505223559 | 62 | 201 | 8.0 | 11.0 | 0.00 | 0.00 | 0.00 | 75 | 1009.9 |
| 20260505223055 | 62 | 226 | 5.0 | 10.0 | 0.00 | 0.00 | 0.00 | 74 | 1010.0 |
| 20260505222552 | 62 | 290 | 7.0 | 9.0 | 0.00 | 0.00 | 0.00 | 75 | 1010.1 |
| 20260505222048 | 62 | 242 | 4.0 | 10.0 | 0.00 | 0.00 | 0.00 | 75 | 1010.0 |
| 20260505221546 | 62 | 173 | 10.0 | 15.0 | 0.00 | 0.00 | 0.00 | 74 | 1009.9 |
| 20260505221041 | 62 | 180 | 5.0 | 15.0 | 0.00 | 0.00 | 0.00 | 74 | 1010.0 |
| 20260505220539 | 63 | 212 | 8.0 | 13.0 | 0.00 | 0.00 | 0.00 | 73 | 1009.8 |
| 20260505220037 | 63 | 192 | 7.0 | 10.0 | 0.00 | 0.00 | 0.00 | 73 | 1010.0 |
| 20260505215535 | 64 | 217 | 5.0 | 11.0 | 0.00 | 0.00 | 0.00 | 71 | 1009.7 |
| 20260505215032 | 64 | 200 | 12.0 | 15.0 | 0.00 | 0.00 | 0.00 | 71 | 1009.6 |
| 20260505214530 | 64 | 269 | 4.0 | 9.0 | 0.00 | 0.00 | 0.00 | 71 | 1009.6 |
| 20260505214027 | 64 | 243 | 8.0 | 9.0 | 0.00 | 0.00 | 0.00 | 71 | 1009.4 |
| 20260505213525 | 64 | 184 | 10.0 | 12.0 | 0.00 | 0.00 | 0.00 | 70 | 1009.6 |
| 20260505213021 | 64 | 282 | 4.0 | 11.0 | 0.00 | 0.00 | 0.00 | 70 | 1009.7 |
| 20260505212517 | 65 | 241 | 4.0 | 14.0 | 0.00 | 0.00 | 0.00 | 70 | 1009.5 |
| 20260505212014 | 65 | 202 | 5.0 | 10.0 | 0.00 | 0.00 | 0.00 | 70 | 1009.7 |
| 20260505211512 | 64 | 296 | 5.0 | 11.0 | 0.00 | 0.00 | 0.00 | 70 | 1009.5 |
| 20260505211008 | 64 | 203 | 6.0 | 10.0 | 0.00 | 0.00 | 0.00 | 70 | 1009.5 |
| 20260505210505 | 64 | 180 | 9.0 | 14.0 | 0.00 | 0.00 | 0.00 | 70 | 1009.4 |
| 20260505210002 | 64 | 213 | 7.0 | 13.0 | 0.00 | 0.00 | 0.00 | 70 | 1009.3 |
| 20260505205500 | 64 | 226 | 5.0 | 13.0 | 0.00 | 0.00 | 0.00 | 70 | 1009.6 |
| 20260505204956 | 65 | 209 | 2.0 | 17.0 | 0.00 | 0.00 | 0.00 | 70 | 1009.6 |
| 20260505204455 | 65 | 179 | 8.0 | 12.0 | 0.00 | 0.00 | 0.00 | 69 | 1009.5 |
| 20260505203951 | 65 | 204 | 5.0 | 11.0 | 0.00 | 0.00 | 0.00 | 69 | 1009.4 |
| 20260505203448 | 66 | 195 | 8.0 | 13.0 | 0.00 | 0.00 | 0.00 | 68 | 1009.5 |
| 20260505202944 | 66 | 213 | 2.0 | 13.0 | 0.00 | 0.00 | 0.00 | 69 | 1009.4 |
| 20260505202441 | 65 | 215 | 3.0 | 8.0 | 0.00 | 0.00 | 0.00 | 70 | 1009.7 |
| 20260505201937 | 65 | 286 | 5.0 | 10.0 | 0.00 | 0.00 | 0.00 | 71 | 1009.8 |
| 20260505201434 | 65 | 231 | 5.0 | 12.0 | 0.00 | 0.00 | 0.00 | 69 | 1009.8 |
| 20260505200932 | 66 | 204 | 5.0 | 10.0 | 0.00 | 0.00 | 0.00 | 70 | 1009.8 |
| 20260505200429 | 66 | 181 | 6.0 | 11.0 | 0.00 | 0.00 | 0.00 | 68 | 1009.7 |
| 20260505195925 | 66 | 218 | 4.0 | 12.0 | 0.00 | 0.00 | 0.00 | 69 | 1009.9 |
| 20260505195422 | 66 | 226 | 4.0 | 9.0 | 0.00 | 0.00 | 0.00 | 68 | 1009.8 |
| 20260505194920 | 67 | 203 | 5.0 | 9.0 | 0.00 | 0.00 | 0.00 | 68 | 1009.8 |
| 20260505194417 | 67 | 193 | 3.0 | 9.0 | 0.00 | 0.00 | 0.00 | 67 | 1010.1 |
| 20260505193917 | 68 | 252 | 5.0 | 6.0 | 0.00 | 0.00 | 0.00 | 67 | 1010.0 |
| 20260505193415 | 67 | 234 | 2.0 | 7.0 | 0.00 | 0.00 | 0.00 | 69 | 1010.3 |
| 20260505192912 | 67 | 220 | 6.0 | 6.0 | 0.00 | 0.00 | 0.00 | 68 | 1010.0 |
| 20260505192410 | 65 | 201 | 5.0 | 10.0 | 0.00 | 0.00 | 0.00 | 70 | 1010.3 |
| 20260505191908 | 66 | 248 | 3.0 | 8.0 | 0.00 | 0.00 | 0.00 | 71 | 1010.4 |
| 20260505191406 | 67 | 248 | 3.0 | 7.0 | 0.00 | 0.00 | 0.00 | 69 | 1010.5 |
| 20260505190903 | 67 | 320 | 1.0 | 7.0 | 0.00 | 0.00 | 0.00 | 69 | 1010.6 |
| 20260505190358 | 66 | 203 | 3.0 | 7.0 | 0.00 | 0.00 | 0.00 | 70 | 1010.7 |
| 20260505185853 | 65 | 230 | 4.0 | 8.0 | 0.00 | 0.00 | 0.00 | 71 | 1010.8 |
| 20260505185350 | 65 | 172 | 15.0 | 17.0 | 0.00 | 0.00 | 0.00 | 70 | 1010.6 |
| 20260505184847 | 66 | 254 | 3.0 | 10.0 | 0.00 | 0.00 | 0.00 | 70 | 1010.7 |
| 20260505184344 | 67 | 184 | 3.0 | 10.0 | 0.00 | 0.00 | 0.00 | 68 | 1010.7 |
| 20260505183841 | 67 | 190 | 7.0 | 9.0 | 0.00 | 0.00 | 0.00 | 70 | 1010.6 |
| 20260505183337 | 65 | 200 | 7.0 | 14.0 | 0.00 | 0.00 | 0.00 | 70 | 1010.7 |
| 20260505182834 | 66 | 229 | 5.0 | 10.0 | 0.00 | 0.00 | 0.00 | 70 | 1011.0 |
| 20260505182331 | 65 | 193 | 7.0 | 17.0 | 0.00 | 0.00 | 0.00 | 71 | 1010.8 |
| 20260505181828 | 66 | 236 | 3.0 | 9.0 | 0.00 | 0.00 | 0.00 | 71 | 1010.8 |
| 20260505181325 | 66 | 203 | 3.0 | 9.0 | 0.00 | 0.00 | 0.00 | 70 | 1010.9 |
| 20260505180822 | 66 | 180 | 5.0 | 11.0 | 0.00 | 0.00 | 0.00 | 70 | 1010.9 |
| 20260505180318 | 66 | 183 | 4.0 | 10.0 | 0.00 | 0.00 | 0.00 | 71 | 1011.0 |
| 20260505175814 | 66 | 207 | 3.0 | 7.0 | 0.00 | 0.00 | 0.00 | 71 | 1011.0 |
| 20260505175311 | 66 | 175 | 8.0 | 11.0 | 0.00 | 0.00 | 0.00 | 70 | 1011.1 |
| 20260505174808 | 67 | 197 | 3.0 | 7.0 | 0.00 | 0.00 | 0.00 | 70 | 1011.0 |
| 20260505174305 | 66 | 304 | 3.0 | 7.0 | 0.00 | 0.00 | 0.00 | 71 | 1010.9 |
| 20260505173801 | 66 | 228 | 2.0 | 7.0 | 0.00 | 0.00 | 0.00 | 72 | 1010.9 |
| 20260505173257 | 66 | 226 | 6.0 | 9.0 | 0.00 | 0.00 | 0.00 | 71 | 1011.3 |
| 20260505172754 | 66 | 254 | 4.0 | 6.0 | 0.00 | 0.00 | 0.00 | 72 | 1011.2 |
| 20260505172252 | 65 | 226 | 4.0 | 10.0 | 0.00 | 0.00 | 0.00 | 72 | 1011.2 |
| 20260505171747 | 64 | 195 | 4.0 | 11.0 | 0.00 | 0.00 | 0.00 | 73 | 1011.1 |
| 20260505171244 | 66 | 203 | 6.0 | 10.0 | 0.00 | 0.00 | 0.00 | 71 | 1011.1 |
| 20260505170740 | 67 | 221 | 2.0 | 6.0 | 0.00 | 0.00 | 0.00 | 70 | 1011.0 |
| 20260505170237 | 67 | 198 | 4.0 | 6.0 | 0.00 | 0.00 | 0.00 | 70 | 1011.1 |
| 20260505165732 | 67 | 215 | 4.0 | 5.0 | 0.00 | 0.00 | 0.00 | 70 | 1011.1 |
| 20260505165229 | 66 | 275 | 4.0 | 7.0 | 0.00 | 0.00 | 0.00 | 72 | 1011.2 |
| 20260505164724 | 64 | 185 | 5.0 | 11.0 | 0.00 | 0.00 | 0.00 | 74 | 1011.2 |
| 20260505164221 | 64 | 184 | 3.0 | 9.0 | 0.00 | 0.00 | 0.00 | 74 | 1011.1 |
| 20260505163720 | 64 | 182 | 2.0 | 11.0 | 0.00 | 0.00 | 0.00 | 74 | 1011.3 |
| 20260505163218 | 64 | 191 | 4.0 | 13.0 | 0.00 | 0.00 | 0.00 | 73 | 1011.5 |
| 20260505162715 | 65 | 253 | 5.0 | 8.0 | 0.00 | 0.00 | 0.00 | 73 | 1011.5 |
| 20260505162212 | 67 | 224 | 4.0 | 10.0 | 0.00 | 0.00 | 0.00 | 70 | 1011.2 |
| 20260505161709 | 67 | 247 | 5.0 | 8.0 | 0.00 | 0.00 | 0.00 | 70 | 1011.3 |
| 20260505161207 | 66 | 294 | 3.0 | 8.0 | 0.00 | 0.00 | 0.00 | 72 | 1011.4 |
| 20260505160704 | 66 | 225 | 2.0 | 8.0 | 0.00 | 0.00 | 0.00 | 72 | 1011.6 |
| 20260505160202 | 66 | 222 | 2.0 | 7.0 | 0.00 | 0.00 | 0.00 | 72 | 1011.4 |
| 20260505153140 | 65 | 224 | 3.0 | 11.0 | 0.00 | 0.00 | 0.00 | 72 | 1012.0 |
| 20260505152637 | 65 | 182 | 5.0 | 7.0 | 0.00 | 0.00 | 0.00 | 74 | 1012.0 |
| 20260505152133 | 64 | 194 | 7.0 | 9.0 | 0.00 | 0.00 | 0.00 | 75 | 1012.2 |
| 20260505151628 | 64 | 183 | 6.0 | 9.0 | 0.00 | 0.00 | 0.00 | 75 | 1012.3 |
| 20260505151126 | 65 | 237 | 5.0 | 10.0 | 0.00 | 0.00 | 0.00 | 74 | 1012.3 |
| 20260505150622 | 65 | 259 | 7.0 | 8.0 | 0.00 | 0.00 | 0.00 | 74 | 1012.1 |
| 20260505150119 | 64 | 203 | 5.0 | 9.0 | 0.00 | 0.00 | 0.00 | 75 | 1012.1 |
| 20260505140548 | 62 | 251 | 3.0 | 11.0 | 0.00 | 0.00 | 0.00 | 78 | 1011.8 |
| 20260505125001 | 60 | 211 | 5.0 | 6.0 | 0.00 | 0.00 | 0.00 | 84 | 1011.9 |
| 20260505124458 | 60 | 194 | 3.0 | 7.0 | 0.00 | 0.00 | 0.00 | 83 | 1011.6 |
| 20260505123954 | 61 | 259 | 3.0 | 9.0 | 0.00 | 0.00 | 0.00 | 82 | 1011.7 |